Time,TemperatureF,DewpointF,PressureIn,WindDirection,WindDirectionDegrees,WindSpeedMPH,WindSpeedGustMPH,Humidity,HourlyPrecipIn,Conditions,Clouds,dailyrainin,SoftwareType,DateUTC
2013-08-03 07:05:00,61.9,55.7,29.93,North,357,0.0,1.0,80,0.00,,,0.00,Wunderground v.1.15,2013-08-03 12:05:00,
2013-08-03 07:08:00,62.1,55.5,29.93,WNW,287,1.0,1.0,79,0.00,,,0.00,Wunderground v.1.15,2013-08-03 12:08:00,
2013-08-03 07:10:00,62.2,55.6,29.93,North,8,1.0,1.0,79,0.00,,,0.00,Wunderground v.1.15,2013-08-03 12:10:00,
2013-08-03 07:18:00,62.5,56.2,29.93,WNW,287,0.0,1.0,80,0.00,,,0.00,Wunderground v.1.15,2013-08-03 12:18:00,
2013-08-03 07:20:00,62.6,56.3,29.93,North,360,0.0,0.0,80,0.00,,,0.00,Wunderground v.1.15,2013-08-03 12:20:00,
2013-08-03 07:26:00,62.5,55.9,29.94,East,91,0.0,0.0,79,0.00,,,0.00,Wunderground v.1.15,2013-08-03 12:26:00,
2013-08-03 07:32:00,62.4,55.8,29.94,SE,128,1.0,1.0,79,0.00,,,0.00,Wunderground v.1.15,2013-08-03 12:32:00,
2013-08-03 07:38:00,62.4,55.8,29.94,ESE,104,1.0,4.0,79,0.00,,,0.00,Wunderground v.1.15,2013-08-03 12:38:00,
2013-08-03 07:44:00,62.4,56.1,29.94,WNW,288,1.0,3.0,80,0.00,,,0.00,Wunderground v.1.15,2013-08-03 12:44:00,
2013-08-03 07:50:00,62.5,56.2,29.94,East,89,1.0,1.0,80,0.00,,,0.00,Wunderground v.1.15,2013-08-03 12:50:00,
2013-08-03 07:56:00,62.5,56.2,29.94,ESE,110,1.0,2.0,80,0.00,,,0.00,Wunderground v.1.15,2013-08-03 12:56:00,
2013-08-03 08:02:00,62.3,56.0,29.94,SE,131,2.0,3.0,80,0.00,,,0.00,Wunderground v.1.15,2013-08-03 13:02:00,
2013-08-03 08:08:00,62.4,56.1,29.94,NW,304,1.0,3.0,80,0.00,,,0.00,Wunderground v.1.15,2013-08-03 13:08:00,
2013-08-03 08:14:00,62.5,56.2,29.94,ENE,61,1.0,3.0,80,0.00,,,0.00,Wunderground v.1.15,2013-08-03 13:14:00,
2013-08-03 08:20:00,62.6,56.7,29.94,East,83,1.0,1.0,81,0.00,,,0.00,Wunderground v.1.15,2013-08-03 13:20:00,
2013-08-03 08:26:00,62.7,56.4,29.94,WNW,294,1.0,1.0,80,0.00,,,0.00,Wunderground v.1.15,2013-08-03 13:26:00,
2013-08-03 08:32:00,63.2,56.9,29.94,WNW,284,0.0,1.0,80,0.00,,,0.00,Wunderground v.1.15,2013-08-03 13:32:00,
2013-08-03 08:38:00,63.4,56.4,29.94,ENE,75,1.0,1.0,78,0.00,,,0.00,Wunderground v.1.15,2013-08-03 13:38:00,
2013-08-03 08:44:00,64.0,57.0,29.94,ESE,104,1.0,1.0,78,0.00,,,0.00,Wunderground v.1.15,2013-08-03 13:44:00,
2013-08-03 08:50:00,64.2,56.8,29.94,SSE,153,1.0,1.0,77,0.00,,,0.00,Wunderground v.1.15,2013-08-03 13:50:00,
2013-08-03 08:56:00,64.2,56.8,29.94,NE,43,1.0,6.0,77,0.00,,,0.00,Wunderground v.1.15,2013-08-03 13:56:00,
2013-08-03 09:02:00,64.2,56.8,29.94,WSW,256,1.0,1.0,77,0.00,,,0.00,Wunderground v.1.15,2013-08-03 14:02:00,
2013-08-03 09:08:00,64.2,57.2,29.94,ENE,65,1.0,6.0,78,0.00,,,0.00,Wunderground v.1.15,2013-08-03 14:08:00,
2013-08-03 09:14:00,64.5,57.1,29.94,NNE,30,2.0,2.0,77,0.00,,,0.00,Wunderground v.1.15,2013-08-03 14:14:00,
2013-08-03 09:20:00,64.1,56.4,29.94,NE,42,2.0,3.0,76,0.00,,,0.00,Wunderground v.1.15,2013-08-03 14:20:00,
2013-08-03 09:26:00,64.0,56.3,29.94,ENE,60,2.0,3.0,76,0.00,,,0.00,Wunderground v.1.15,2013-08-03 14:26:00,
2013-08-03 09:32:00,63.9,55.4,29.95,ESE,118,2.0,4.0,74,0.00,,,0.00,Wunderground v.1.15,2013-08-03 14:32:00,
2013-08-03 09:38:00,64.3,55.5,29.95,East,84,2.0,4.0,73,0.00,,,0.00,Wunderground v.1.15,2013-08-03 14:38:00,
2013-08-03 09:44:00,64.6,55.4,29.95,East,91,2.0,2.0,72,0.00,,,0.00,Wunderground v.1.15,2013-08-03 14:44:00,
2013-08-03 09:50:00,64.6,54.6,29.95,West,259,2.0,2.0,70,0.00,,,0.00,Wunderground v.1.15,2013-08-03 14:50:00,
2013-08-03 09:56:00,64.5,54.9,29.95,ENE,77,2.0,3.0,71,0.00,,,0.00,Wunderground v.1.15,2013-08-03 14:56:00,
2013-08-03 10:02:00,64.2,54.6,29.95,NW,315,2.0,2.0,71,0.00,,,0.00,Wunderground v.1.15,2013-08-03 15:02:00,
2013-08-03 10:08:00,63.9,54.3,29.96,WNW,294,1.0,6.0,71,0.00,,,0.00,Wunderground v.1.15,2013-08-03 15:08:00,
2013-08-03 10:14:00,63.7,54.1,29.96,NNE,16,2.0,2.0,71,0.00,,,0.00,Wunderground v.1.15,2013-08-03 15:14:00,
2013-08-03 10:20:00,63.7,54.1,29.96,NE,46,1.0,1.0,71,0.00,,,0.00,Wunderground v.1.15,2013-08-03 15:20:00,
2013-08-03 10:26:00,64.5,54.9,29.96,NE,53,1.0,2.0,71,0.00,,,0.00,Wunderground v.1.15,2013-08-03 15:26:00,
2013-08-03 10:32:00,64.5,53.7,29.96,SSE,163,1.0,1.0,68,0.00,,,0.00,Wunderground v.1.15,2013-08-03 15:32:00,
2013-08-03 10:38:00,64.6,54.2,29.96,NNE,27,1.0,1.0,69,0.00,,,0.00,Wunderground v.1.15,2013-08-03 15:38:00,
2013-08-03 10:44:00,64.4,54.0,29.96,WNW,294,1.0,1.0,69,0.00,,,0.00,Wunderground v.1.15,2013-08-03 15:44:00,
2013-08-03 10:50:00,64.5,54.5,29.97,SW,226,1.0,1.0,70,0.00,,,0.00,Wunderground v.1.15,2013-08-03 15:50:00,
2013-08-03 10:58:00,64.3,55.1,29.97,NW,316,1.0,6.0,72,0.00,,,0.00,Wunderground v.1.15,2013-08-03 15:58:00,
2013-08-03 11:04:00,64.5,55.3,29.97,West,274,1.0,1.0,72,0.00,,,0.00,Wunderground v.1.15,2013-08-03 16:04:00,
2013-08-03 11:10:00,64.5,55.7,29.97,West,264,1.0,1.0,73,0.00,,,0.00,Wunderground v.1.15,2013-08-03 16:10:00,
2013-08-03 11:16:00,64.5,56.0,29.97,NNE,28,1.0,1.0,74,0.00,,,0.00,Wunderground v.1.15,2013-08-03 16:16:00,
2013-08-03 11:22:00,64.5,55.7,29.97,ENE,70,1.0,1.0,73,0.00,,,0.00,Wunderground v.1.15,2013-08-03 16:22:00,
2013-08-03 11:28:00,64.7,55.5,29.98,WNW,287,1.0,2.0,72,0.00,,,0.00,Wunderground v.1.15,2013-08-03 16:28:00,
2013-08-03 11:34:00,64.6,55.0,29.98,WNW,287,1.0,2.0,71,0.00,,,0.00,Wunderground v.1.15,2013-08-03 16:34:00,
2013-08-03 11:40:00,64.2,55.0,29.98,WNW,284,1.0,1.0,72,0.00,,,0.00,Wunderground v.1.15,2013-08-03 16:40:00,
2013-08-03 11:46:00,63.9,55.8,29.98,WNW,284,1.0,2.0,75,0.00,,,0.00,Wunderground v.1.15,2013-08-03 16:46:00,
2013-08-03 11:52:00,63.8,55.7,29.98,West,281,1.0,4.0,75,0.00,,,0.00,Wunderground v.1.15,2013-08-03 16:52:00,
2013-08-03 11:58:00,63.8,55.7,29.99,WNW,287,1.0,5.0,75,0.00,,,0.00,Wunderground v.1.15,2013-08-03 16:58:00,
2013-08-03 12:04:00,63.6,55.9,29.99,WNW,284,1.0,2.0,76,0.00,,,0.00,Wunderground v.1.15,2013-08-03 17:04:00,
2013-08-03 12:10:00,63.8,56.4,29.99,NNW,336,1.0,1.0,77,0.00,,,0.00,Wunderground v.1.15,2013-08-03 17:10:00,
2013-08-03 12:16:00,64.0,56.6,29.99,WNW,285,0.0,1.0,77,0.00,,,0.00,Wunderground v.1.15,2013-08-03 17:16:00,
2013-08-03 12:22:00,64.2,56.5,29.99,West,266,1.0,2.0,76,0.00,,,0.00,Wunderground v.1.15,2013-08-03 17:22:00,
2013-08-03 12:28:00,64.3,56.6,29.99,SSW,193,1.0,2.0,76,0.00,,,0.00,Wunderground v.1.15,2013-08-03 17:28:00,
2013-08-03 12:34:00,64.5,56.4,29.99,NE,43,1.0,2.0,75,0.00,,,0.00,Wunderground v.1.15,2013-08-03 17:34:00,
2013-08-03 12:40:00,64.5,56.4,29.99,West,276,1.0,1.0,75,0.00,,,0.00,Wunderground v.1.15,2013-08-03 17:40:00,
2013-08-03 12:45:00,64.6,56.9,29.99,WNW,287,1.0,2.0,76,0.00,,,0.00,Wunderground v.1.15,2013-08-03 17:45:00,
2013-08-03 12:52:00,64.1,56.4,29.99,WSW,246,1.0,1.0,76,0.00,,,0.00,Wunderground v.1.15,2013-08-03 17:52:00,
2013-08-03 12:58:00,64.0,56.3,30.00,WSW,240,1.0,3.0,76,0.00,,,0.00,Wunderground v.1.15,2013-08-03 17:58:00,
2013-08-03 13:04:00,63.9,55.8,29.99,WNW,294,1.0,3.0,75,0.00,,,0.00,Wunderground v.1.15,2013-08-03 18:04:00,
2013-08-03 13:10:00,64.3,56.6,29.99,WNW,287,1.0,3.0,76,0.00,,,0.00,Wunderground v.1.15,2013-08-03 18:10:00,
2013-08-03 13:16:00,64.8,56.7,29.99,WNW,290,1.0,3.0,75,0.00,,,0.00,Wunderground v.1.15,2013-08-03 18:16:00,
2013-08-03 13:22:00,64.8,56.3,30.00,NNW,331,1.0,2.0,74,0.00,,,0.00,Wunderground v.1.15,2013-08-03 18:22:00,
2013-08-03 13:28:00,64.7,56.6,30.00,West,278,1.0,2.0,75,0.00,,,0.00,Wunderground v.1.15,2013-08-03 18:28:00,
2013-08-03 13:34:00,64.5,56.0,30.00,West,278,1.0,3.0,74,0.00,,,0.00,Wunderground v.1.15,2013-08-03 18:34:00,
2013-08-03 13:40:00,64.6,55.7,30.00,WNW,287,1.0,2.0,73,0.00,,,0.00,Wunderground v.1.15,2013-08-03 18:40:00,
2013-08-03 13:46:00,65.0,56.5,30.00,WNW,285,1.0,5.0,74,0.00,,,0.00,Wunderground v.1.15,2013-08-03 18:46:00,
2013-08-03 13:52:00,65.3,56.0,30.00,WNW,284,1.0,1.0,72,0.00,,,0.00,Wunderground v.1.15,2013-08-03 18:52:00,
2013-08-03 13:58:00,65.5,56.2,30.00,WNW,287,1.0,4.0,72,0.00,,,0.00,Wunderground v.1.15,2013-08-03 18:58:00,
2013-08-03 14:04:00,65.7,56.0,30.00,WNW,294,1.0,1.0,71,0.00,,,0.00,Wunderground v.1.15,2013-08-03 19:04:00,
2013-08-03 14:10:00,66.0,56.3,30.00,WSW,253,1.0,1.0,71,0.00,,,0.00,Wunderground v.1.15,2013-08-03 19:10:00,
2013-08-03 14:18:00,67.1,57.4,30.00,WNW,291,1.0,3.0,71,0.00,,,0.00,Wunderground v.1.15,2013-08-03 19:18:00,
2013-08-03 14:24:00,67.3,56.8,30.00,East,85,2.0,2.0,69,0.00,,,0.00,Wunderground v.1.15,2013-08-03 19:24:00,
2013-08-03 14:30:00,67.2,56.3,30.00,ENE,63,2.0,2.0,68,0.00,,,0.00,Wunderground v.1.15,2013-08-03 19:30:00,
2013-08-03 14:36:00,66.2,54.9,30.00,North,352,2.0,4.0,67,0.00,,,0.00,Wunderground v.1.15,2013-08-03 19:36:00,
2013-08-03 14:42:00,65.9,55.4,29.99,North,352,2.0,2.0,69,0.00,,,0.00,Wunderground v.1.15,2013-08-03 19:42:00,
2013-08-03 14:48:00,66.4,56.3,29.99,WNW,290,2.0,2.0,70,0.00,,,0.00,Wunderground v.1.15,2013-08-03 19:48:00,
2013-08-03 14:54:00,66.6,56.1,29.99,ENE,66,1.0,4.0,69,0.00,,,0.00,Wunderground v.1.15,2013-08-03 19:54:00,
2013-08-03 15:00:00,66.6,56.1,30.00,NE,53,1.0,1.0,69,0.00,,,0.00,Wunderground v.1.15,2013-08-03 20:00:00,
2013-08-03 15:06:00,67.2,56.3,29.99,NNE,22,1.0,4.0,68,0.00,,,0.00,Wunderground v.1.15,2013-08-03 20:06:00,
2013-08-03 15:12:00,67.1,56.2,30.00,NE,53,2.0,6.0,68,0.00,,,0.00,Wunderground v.1.15,2013-08-03 20:12:00,
2013-08-03 15:18:00,66.5,56.4,30.00,SSE,148,1.0,6.0,70,0.00,,,0.00,Wunderground v.1.15,2013-08-03 20:18:00,
2013-08-03 15:24:00,66.2,55.7,29.99,WNW,282,1.0,3.0,69,0.00,,,0.00,Wunderground v.1.15,2013-08-03 20:24:00,
2013-08-03 15:30:00,65.9,56.2,30.00,NNE,33,1.0,1.0,71,0.00,,,0.00,Wunderground v.1.15,2013-08-03 20:30:00,
2013-08-03 15:36:00,65.5,55.8,30.00,ESE,110,1.0,1.0,71,0.00,,,0.00,Wunderground v.1.15,2013-08-03 20:36:00,
2013-08-03 15:42:00,65.6,55.9,29.99,East,88,0.0,1.0,71,0.00,,,0.00,Wunderground v.1.15,2013-08-03 20:42:00,
2013-08-03 15:48:00,66.8,57.1,29.99,WNW,287,0.0,1.0,71,0.00,,,0.00,Wunderground v.1.15,2013-08-03 20:48:00,
2013-08-03 15:54:00,67.2,56.7,30.00,WNW,288,0.0,1.0,69,0.00,,,0.00,Wunderground v.1.15,2013-08-03 20:54:00,
2013-08-03 16:00:00,66.9,57.2,30.00,ESE,106,0.0,1.0,71,0.00,,,0.00,Wunderground v.1.15,2013-08-03 21:00:00,
2013-08-03 16:06:00,66.8,57.1,30.00,West,271,0.0,1.0,71,0.00,,,0.00,Wunderground v.1.15,2013-08-03 21:06:00,
2013-08-03 16:12:00,66.4,56.7,30.00,West,281,0.0,1.0,71,0.00,,,0.00,Wunderground v.1.15,2013-08-03 21:12:00,
2013-08-03 16:18:00,66.5,56.8,30.00,WNW,287,0.0,1.0,71,0.00,,,0.00,Wunderground v.1.15,2013-08-03 21:18:00,
2013-08-03 16:24:00,66.6,57.3,30.00,West,271,0.0,0.0,72,0.00,,,0.00,Wunderground v.1.15,2013-08-03 21:24:00,
2013-08-03 16:30:00,66.7,56.6,30.00,WNW,285,0.0,1.0,70,0.00,,,0.00,Wunderground v.1.15,2013-08-03 21:30:00,
2013-08-03 16:38:00,66.4,56.7,30.00,WNW,282,0.0,3.0,71,0.00,,,0.00,Wunderground v.1.15,2013-08-03 21:38:00,
2013-08-03 16:44:00,66.0,56.7,30.00,WNW,282,0.0,0.0,72,0.00,,,0.00,Wunderground v.1.15,2013-08-03 21:44:00,
2013-08-03 16:50:00,66.1,57.2,30.00,East,90,0.0,0.0,73,0.00,,,0.00,Wunderground v.1.15,2013-08-03 21:50:00,
2013-08-03 16:56:00,66.1,57.2,30.00,West,277,0.0,2.0,73,0.00,,,0.00,Wunderground v.1.15,2013-08-03 21:56:00,
2013-08-03 17:02:00,66.5,57.2,30.00,WNW,282,0.0,2.0,72,0.00,,,0.00,Wunderground v.1.15,2013-08-03 22:02:00,
2013-08-03 17:07:00,66.7,57.0,30.00,WNW,285,1.0,2.0,71,0.00,,,0.00,Wunderground v.1.15,2013-08-03 22:07:00,
2013-08-03 17:14:00,66.6,56.9,30.00,WNW,288,0.0,0.0,71,0.00,,,0.00,Wunderground v.1.15,2013-08-03 22:14:00,
2013-08-03 17:20:00,66.0,56.7,30.00,WNW,283,0.0,0.0,72,0.00,,,0.00,Wunderground v.1.15,2013-08-03 22:20:00,
2013-08-03 17:26:00,65.9,57.0,30.00,ESE,119,0.0,0.0,73,0.00,,,0.00,Wunderground v.1.15,2013-08-03 22:26:00,
2013-08-03 17:32:00,65.8,56.9,30.00,ESE,105,0.0,0.0,73,0.00,,,0.00,Wunderground v.1.15,2013-08-03 22:32:00,
2013-08-03 17:38:00,65.8,56.9,30.00,WNW,293,0.0,1.0,73,0.00,,,0.00,Wunderground v.1.15,2013-08-03 22:38:00,
2013-08-03 17:44:00,66.0,56.7,30.00,WNW,285,0.0,4.0,72,0.00,,,0.00,Wunderground v.1.15,2013-08-03 22:44:00,
2013-08-03 17:50:00,65.8,56.9,30.00,WNW,283,0.0,1.0,73,0.00,,,0.00,Wunderground v.1.15,2013-08-03 22:50:00,
2013-08-03 17:56:00,65.9,57.4,30.00,ESE,114,0.0,2.0,74,0.00,,,0.00,Wunderground v.1.15,2013-08-03 22:56:00,
2013-08-03 18:02:00,65.8,56.9,30.00,WNW,287,0.0,0.0,73,0.00,,,0.00,Wunderground v.1.15,2013-08-03 23:02:00,
2013-08-03 18:07:00,65.8,56.9,30.00,WNW,297,0.0,1.0,73,0.00,,,0.00,Wunderground v.1.15,2013-08-03 23:07:00,
2013-08-03 18:14:00,65.8,57.3,30.00,NNW,340,0.0,1.0,74,0.00,,,0.00,Wunderground v.1.15,2013-08-03 23:14:00,
2013-08-03 18:20:00,65.8,57.3,30.00,WSW,247,0.0,0.0,74,0.00,,,0.00,Wunderground v.1.15,2013-08-03 23:20:00,
2013-08-03 18:26:00,65.6,57.1,30.00,SW,225,0.0,0.0,74,0.00,,,0.00,Wunderground v.1.15,2013-08-03 23:26:00,
2013-08-03 18:32:00,65.3,56.8,30.00,WNW,285,1.0,1.0,74,0.00,,,0.00,Wunderground v.1.15,2013-08-03 23:32:00,
2013-08-03 18:38:00,65.1,57.0,30.00,WNW,289,0.0,1.0,75,0.00,,,0.00,Wunderground v.1.15,2013-08-03 23:38:00,
2013-08-03 18:44:00,65.0,57.2,30.00,West,276,0.0,0.0,76,0.00,,,0.00,Wunderground v.1.15,2013-08-03 23:44:00,
2013-08-03 18:50:00,65.1,57.3,30.00,WNW,290,0.0,0.0,76,0.00,,,0.00,Wunderground v.1.15,2013-08-03 23:50:00,
2013-08-03 18:56:00,65.0,57.2,30.00,WNW,291,1.0,2.0,76,0.00,,,0.00,Wunderground v.1.15,2013-08-03 23:56:00,
2013-08-03 19:02:00,65.0,57.2,30.01,ENE,67,1.0,1.0,76,0.00,,,0.00,Wunderground v.1.15,2013-08-04 00:02:00,
2013-08-03 19:08:00,64.9,57.2,30.01,WNW,300,0.0,1.0,76,0.00,,,0.00,Wunderground v.1.15,2013-08-04 00:08:00,
2013-08-03 19:14:00,64.9,57.2,30.01,SSE,160,1.0,2.0,76,0.00,,,0.00,Wunderground v.1.15,2013-08-04 00:14:00,
2013-08-03 19:20:00,64.9,57.2,30.01,ESE,111,1.0,1.0,76,0.00,,,0.00,Wunderground v.1.15,2013-08-04 00:20:00,
2013-08-03 19:26:00,64.8,57.1,30.01,East,82,1.0,3.0,76,0.00,,,0.00,Wunderground v.1.15,2013-08-04 00:26:00,
2013-08-03 19:32:00,64.9,56.4,30.01,ENE,70,2.0,2.0,74,0.00,,,0.00,Wunderground v.1.15,2013-08-04 00:32:00,
2013-08-03 19:38:00,64.9,55.7,30.01,East,96,3.0,3.0,72,0.00,,,0.00,Wunderground v.1.15,2013-08-04 00:38:00,
2013-08-03 19:44:00,64.8,54.8,30.01,SSE,160,3.0,4.0,70,0.00,,,0.00,Wunderground v.1.15,2013-08-04 00:44:00,
2013-08-03 19:50:00,64.7,54.7,30.01,NE,43,2.0,2.0,70,0.00,,,0.00,Wunderground v.1.15,2013-08-04 00:50:00,
2013-08-03 19:56:00,64.6,55.7,30.01,ENE,68,2.0,5.0,73,0.00,,,0.00,Wunderground v.1.15,2013-08-04 00:56:00,
2013-08-03 20:02:00,64.2,55.7,30.02,ENE,70,3.0,13.0,74,0.00,,,0.00,Wunderground v.1.15,2013-08-04 01:02:00,
2013-08-03 20:08:00,63.5,55.1,30.02,NW,316,4.0,13.0,74,0.00,,,0.00,Wunderground v.1.15,2013-08-04 01:08:00,
2013-08-03 20:14:00,63.3,54.5,30.02,NW,307,3.0,4.0,73,0.00,,,0.00,Wunderground v.1.15,2013-08-04 01:14:00,
2013-08-03 20:20:00,63.2,54.4,30.02,North,4,2.0,3.0,73,0.00,,,0.00,Wunderground v.1.15,2013-08-04 01:20:00,
2013-08-03 20:26:00,63.0,54.2,30.02,NE,36,3.0,6.0,73,0.00,,,0.00,Wunderground v.1.15,2013-08-04 01:26:00,
2013-08-03 20:32:00,62.8,54.0,30.03,East,85,3.0,3.0,73,0.00,,,0.00,Wunderground v.1.15,2013-08-04 01:32:00,
2013-08-03 20:38:00,62.6,53.8,30.02,NNE,14,2.0,3.0,73,0.00,,,0.00,Wunderground v.1.15,2013-08-04 01:38:00,
2013-08-03 20:44:00,62.4,54.0,30.03,NE,46,1.0,2.0,74,0.00,,,0.00,Wunderground v.1.15,2013-08-04 01:44:00,
2013-08-03 20:50:00,62.4,54.0,30.03,NE,36,2.0,3.0,74,0.00,,,0.00,Wunderground v.1.15,2013-08-04 01:50:00,
2013-08-03 20:56:00,62.4,54.0,30.03,NE,37,2.0,3.0,74,0.00,,,0.00,Wunderground v.1.15,2013-08-04 01:56:00,
2013-08-03 21:02:00,62.3,53.9,30.03,North,8,2.0,2.0,74,0.00,,,0.00,Wunderground v.1.15,2013-08-04 02:02:00,
2013-08-03 21:08:00,62.3,54.3,30.03,East,81,2.0,2.0,75,0.00,,,0.00,Wunderground v.1.15,2013-08-04 02:08:00,
2013-08-03 21:14:00,62.4,54.0,30.03,NW,305,2.0,2.0,74,0.00,,,0.00,Wunderground v.1.15,2013-08-04 02:14:00,
2013-08-03 21:20:00,62.4,54.7,30.03,ESE,122,2.0,2.0,76,0.00,,,0.00,Wunderground v.1.15,2013-08-04 02:20:00,
2013-08-03 21:25:00,62.6,54.9,30.03,North,6,3.0,5.0,76,0.00,,,0.00,Wunderground v.1.15,2013-08-04 02:25:00,
2013-08-03 21:32:00,62.6,54.9,30.03,ENE,60,3.0,6.0,76,0.00,,,0.00,Wunderground v.1.15,2013-08-04 02:32:00,
2013-08-03 21:38:00,62.6,54.6,30.04,NE,53,2.0,6.0,75,0.00,,,0.00,Wunderground v.1.15,2013-08-04 02:38:00,
2013-08-03 21:44:00,62.4,54.7,30.03,ESE,105,2.0,6.0,76,0.00,,,0.00,Wunderground v.1.15,2013-08-04 02:44:00,
2013-08-03 21:50:00,62.3,55.0,30.04,ESE,121,2.0,2.0,77,0.00,,,0.00,Wunderground v.1.15,2013-08-04 02:50:00,
2013-08-03 21:56:00,62.3,54.6,30.04,North,357,3.0,4.0,76,0.00,,,0.00,Wunderground v.1.15,2013-08-04 02:56:00,
2013-08-03 22:02:00,62.1,54.4,30.04,West,280,3.0,3.0,76,0.00,,,0.00,Wunderground v.1.15,2013-08-04 03:02:00,
2013-08-03 22:08:00,62.0,54.3,30.04,WNW,297,2.0,3.0,76,0.00,,,0.00,Wunderground v.1.15,2013-08-04 03:08:00,
2013-08-03 22:14:00,61.8,53.8,30.04,West,270,2.0,4.0,75,0.00,,,0.00,Wunderground v.1.15,2013-08-04 03:14:00,
2013-08-03 22:20:00,61.8,53.8,30.04,NW,311,2.0,2.0,75,0.00,,,0.00,Wunderground v.1.15,2013-08-04 03:20:00,
2013-08-03 22:26:00,61.7,53.7,30.04,NW,317,2.0,2.0,75,0.00,,,0.00,Wunderground v.1.15,2013-08-04 03:26:00,
2013-08-03 22:31:00,61.6,53.6,30.04,ENE,59,1.0,3.0,75,0.00,,,0.00,Wunderground v.1.15,2013-08-04 03:31:00,
2013-08-03 22:38:00,61.6,54.0,30.04,East,82,2.0,4.0,76,0.00,,,0.00,Wunderground v.1.15,2013-08-04 03:38:00,
2013-08-03 22:44:00,61.4,53.4,30.04,WSW,252,2.0,2.0,75,0.00,,,0.00,Wunderground v.1.15,2013-08-04 03:44:00,
2013-08-03 22:50:00,61.3,53.3,30.04,NE,37,2.0,2.0,75,0.00,,,0.00,Wunderground v.1.15,2013-08-04 03:50:00,
2013-08-03 22:56:00,61.5,53.9,30.04,NE,51,2.0,3.0,76,0.00,,,0.00,Wunderground v.1.15,2013-08-04 03:56:00,
2013-08-03 23:02:00,61.4,53.8,30.04,NW,304,2.0,3.0,76,0.00,,,0.00,Wunderground v.1.15,2013-08-04 04:02:00,
2013-08-03 23:08:00,61.4,53.8,30.04,ENE,67,1.0,3.0,76,0.00,,,0.00,Wunderground v.1.15,2013-08-04 04:08:00,
2013-08-03 23:10:00,61.4,54.1,30.04,NNE,12,1.0,1.0,77,0.00,,,0.00,Wunderground v.1.15,2013-08-04 04:10:00,
2013-08-03 23:12:00,61.3,54.0,30.04,East,79,1.0,3.0,77,0.00,,,0.00,Wunderground v.1.15,2013-08-04 04:12:00,
2013-08-03 23:18:00,61.2,53.9,30.04,NE,49,2.0,7.0,77,0.00,,,0.00,Wunderground v.1.15,2013-08-04 04:18:00,
2013-08-03 23:24:00,61.2,53.9,30.04,East,88,2.0,2.0,77,0.00,,,0.00,Wunderground v.1.15,2013-08-04 04:24:00,
2013-08-03 23:30:00,61.1,54.2,30.05,NE,37,2.0,2.0,78,0.00,,,0.00,Wunderground v.1.15,2013-08-04 04:30:00,
2013-08-03 23:38:00,60.9,53.6,30.05,East,83,2.0,8.0,77,0.00,,,0.00,Wunderground v.1.15,2013-08-04 04:38:00,
2013-08-03 23:44:00,60.8,53.9,30.04,North,9,2.0,3.0,78,0.00,,,0.00,Wunderground v.1.15,2013-08-04 04:44:00,
2013-08-03 23:50:00,60.8,53.9,30.05,East,83,2.0,2.0,78,0.00,,,0.00,Wunderground v.1.15,2013-08-04 04:50:00,
2013-08-03 23:56:00,60.7,53.8,30.05,ENE,68,1.0,11.0,78,0.00,,,0.00,Wunderground v.1.15,2013-08-04 04:56:00,